Weather History for St. Joseph, MO

Change the Weather History Date:

Saturday, March 30, 2013

  Actual Average Record
Temperature  
Mean Temperature 57 °F 49 °F  
Max Temperature 67 °F 61 °F 86 °F (1968)
Min Temperature 47 °F 37 °F 14 °F (1964)
Degree Days  
Heating Degree Days 8 16  
Month to date heating degree days 836 668  
Since 1 July heating degree days 4940 4976  
Cooling Degree Days 0 0  
Month to date cooling degree days 0 0  
Year to date cooling degree days 0 0  
Growing Degree Days 6 (Base 50)    
Moisture  
Dew Point 46 °F    
Average Humidity 68    
Maximum Humidity 89    
Minimum Humidity 46    
Precipitation  
Precipitation 0.80 in 0.10 in 1.15 in (1998)
Month to date precipitation 2.08 2.15  
Year to date precipitation 3.09 3.64  
Sea Level Pressure  
Sea Level Pressure 29.95 in    
Wind  
Wind Speed 5 mph (SE)    
Max Wind Speed 23 mph    
Max Gust Speed 26 mph    
Visibility 8 miles    
Events Rain , Thunderstorm    
T = Trace of Precipitation, MM = Missing Value Source: NWS Daily Summary

Daily Weather History Graph

Daily Weather History Graph

Search for Another Location

Airport:

Trip Planner

Search our weather history database for the weather conditions in past years. The results will help you decide how hot, cold, wet, or windy it might be!

Date:

Astronomy

Mar. 30, 2013 Rise Set
Actual Time 7:06 AM CDT 7:42 PM CDT
Civil Twilight 6:39 AM CDT 8:09 PM CDT
Nautical Twilight 6:07 AM CDT 8:41 PM CDT
Astronomical Twilight 5:34 AM CDT 9:14 PM CDT
Moon 11:49 PM CDT (3/30) 9:02 AM CDT (3/30)
Length of Visible Light 13h 29m
Length of Day
12h 35m
Waning Gibbous, 86% of the Moon is Illuminated
Mar 30
Waning Gibbous
Apr 2
Last Quarter
Apr 10
New
Apr 18
First Quarter
Apr 25
Full

Hourly Weather History & Observations

Time (CDT) Temp. Dew Point Humidity Pressure Visibility Wind Dir Wind Speed Gust Speed Precip Events Conditions
12:53 AM 53.1 °F 33.1 °F 47% 30.08 in 10.0 mi SE 10.4 mph - N/A   Clear
1:53 AM 51.1 °F 35.1 °F 54% 30.09 in 10.0 mi SSE 9.2 mph - N/A   Clear
2:53 AM 51.1 °F 35.1 °F 54% 30.09 in 10.0 mi ESE 3.5 mph - N/A   Mostly Cloudy
3:53 AM 51.1 °F 35.1 °F 54% 30.05 in 10.0 mi East 8.1 mph - N/A   Mostly Cloudy
4:53 AM 50.0 °F 36.0 °F 59% 30.00 in 10.0 mi ESE 4.6 mph - N/A   Overcast
5:53 AM 52.0 °F 39.0 °F 61% 29.99 in 10.0 mi Variable 4.6 mph - N/A   Mostly Cloudy
6:53 AM 52.0 °F 41.0 °F 66% 29.97 in 10.0 mi Calm Calm - N/A   Overcast
7:08 AM 51.8 °F 42.8 °F 71% 29.98 in 10.0 mi SE 6.9 mph - N/A   Overcast
7:53 AM 51.1 °F 43.0 °F 74% 29.97 in 10.0 mi Calm Calm - 0.00 in Rain Light Rain
8:04 AM 51.8 °F 42.8 °F 71% 29.97 in 10.0 mi SSE 3.5 mph - 0.00 in Rain , Thunderstorm Light Rain
8:16 AM 48.2 °F 44.6 °F 87% 29.97 in 1.8 mi Calm Calm - 0.14 in Rain , Thunderstorm Heavy Thunderstorms and Rain
8:29 AM 48.2 °F 44.6 °F 87% 29.99 in 1.0 mi WSW 8.1 mph - 0.30 in Rain , Thunderstorm Heavy Thunderstorms and Rain
8:53 AM 48.0 °F 46.0 °F 93% 29.98 in 1.0 mi SE 6.9 mph - 0.55 in Rain , Thunderstorm Heavy Thunderstorms and Rain
9:02 AM 48.2 °F 46.4 °F 93% 29.97 in 1.5 mi SE 5.8 mph - 0.08 in Rain , Thunderstorm Rain
9:20 AM 50.0 °F 48.2 °F 94% 29.96 in 3.0 mi SSE 12.7 mph - 0.14 in Rain , Thunderstorm Light Rain
9:31 AM 51.8 °F 48.2 °F 88% 29.96 in 10.0 mi SE 12.7 mph - 0.14 in   Overcast
9:53 AM 51.1 °F 46.9 °F 86% 29.97 in 10.0 mi ESE 5.8 mph - 0.14 in   Overcast
10:53 AM 52.0 °F 48.9 °F 89% 29.99 in 6.0 mi North 6.9 mph - N/A   Overcast
11:21 AM 51.8 °F 48.2 °F 88% 29.98 in 1.8 mi South 3.5 mph - 0.02 in Rain Rain
11:37 AM 51.8 °F 48.2 °F 88% 29.91 in 1.5 mi SSE 23.0 mph - 0.08 in Rain Rain
11:46 AM 51.8 °F 48.2 °F 88% 29.93 in 3.0 mi SSE 18.4 mph - 0.11 in Rain Light Rain
11:53 AM 52.0 °F 50.0 °F 93% 29.94 in 4.0 mi South 11.5 mph - 0.11 in Rain Light Rain
12:19 PM 55.4 °F 51.8 °F 88% 29.95 in 7.0 mi SE 4.6 mph - 0.00 in   Mostly Cloudy
12:43 PM 55.4 °F 51.8 °F 88% 29.94 in 7.0 mi SSE 5.8 mph - 0.00 in   Mostly Cloudy
12:53 PM 57.0 °F 52.0 °F 83% 29.93 in 7.0 mi South 5.8 mph - 0.00 in   Mostly Cloudy
1:53 PM 59.0 °F 52.0 °F 78% 29.93 in 9.0 mi SW 6.9 mph - N/A   Overcast
2:34 PM 60.8 °F 51.8 °F 72% 29.91 in 10.0 mi SW 5.8 mph - N/A   Overcast
2:53 PM 62.1 °F 52.0 °F 70% 29.91 in 10.0 mi Variable 4.6 mph - N/A   Overcast
3:53 PM 64.0 °F 52.0 °F 65% 29.88 in 10.0 mi Variable 3.5 mph - N/A   Scattered Clouds
4:53 PM 66.0 °F 52.0 °F 60% 29.87 in 10.0 mi North 5.8 mph - N/A   Partly Cloudy
5:53 PM 66.0 °F 51.1 °F 59% 29.86 in 10.0 mi Calm Calm - N/A   Partly Cloudy
6:34 PM 64.4 °F 51.8 °F 64% 29.87 in 10.0 mi Calm Calm - N/A Thunderstorm Mostly Cloudy
6:49 PM 64.4 °F 51.8 °F 64% 29.87 in 10.0 mi Calm Calm - N/A   Partly Cloudy
6:53 PM 64.9 °F 51.1 °F 61% 29.86 in 10.0 mi Calm Calm - N/A   Clear
7:53 PM 60.1 °F 52.0 °F 75% 29.88 in 10.0 mi Calm Calm - N/A   Mostly Cloudy
8:53 PM 57.9 °F 43.0 °F 58% 29.91 in 10.0 mi North 11.5 mph - N/A   Scattered Clouds
9:53 PM 51.1 °F 43.0 °F 74% 29.93 in 10.0 mi North 6.9 mph - N/A   Clear
10:53 PM 46.9 °F 42.1 °F 83% 29.94 in 10.0 mi North 4.6 mph - N/A   Partly Cloudy
11:53 PM 48.0 °F 44.1 °F 86% 29.94 in 9.0 mi Calm Calm - N/A   Scattered Clouds